| time (UTC) | temp C | wind direction | speed KPH | gust KPH | rain 1hr cm | rain 24hr cm | rain mn cm | humidity % | barometer mb |
| 20260502183110 | 19 | 172 | 12.9 | 30.6 | 0.00 | 0.00 | 0.00 | 17 | 1016.2 |
| 20260502181607 | 19 | 177 | 9.7 | 29.0 | 0.00 | 0.00 | 0.00 | 16 | 1016.4 |
| 20260502180109 | 19 | 190 | 14.5 | 29.0 | 0.00 | 0.00 | 0.00 | 18 | 1016.4 |
| 20260502163025 | 17 | 167 | 6.4 | 19.3 | 0.00 | 0.00 | 0.00 | 30 | 1017.1 |
| 20260502161510 | 16 | 184 | 9.7 | 17.7 | 0.00 | 0.00 | 0.00 | 26 | 1017.2 |
| 20260502151614 | 15 | 154 | 6.4 | 12.9 | 0.00 | 0.00 | 0.00 | 33 | 1017.2 |
| 20260502150106 | 13 | 159 | 4.8 | 11.3 | 0.00 | 0.00 | 0.00 | 36 | 1017.3 |
| 20260502123047 | 3 | 267 | 3.2 | 9.7 | 0.00 | 0.00 | 0.00 | 55 | 1017.0 |
| 20260502121553 | 4 | 270 | 3.2 | 9.7 | 0.00 | 0.00 | 0.00 | 52 | 1016.9 |
| 20260502114551 | 4 | 248 | 8.0 | 12.9 | 0.00 | 0.00 | 0.00 | 52 | 1016.9 |
| 20260502113019 | 4 | 263 | 3.2 | 9.7 | 0.00 | 0.00 | 0.00 | 52 | 1016.8 |
| 20260502111547 | 5 | 265 | 1.6 | 8.0 | 0.00 | 0.00 | 0.00 | 52 | 1016.9 |
| 20260502110050 | 3 | 240 | 6.4 | 11.3 | 0.00 | 0.00 | 0.00 | 54 | 1017.0 |
| 20260502104557 | 5 | 240 | 4.8 | 9.7 | 0.00 | 0.00 | 0.00 | 52 | 1017.0 |
| 20260502103058 | 4 | 235 | 6.4 | 9.7 | 0.00 | 0.00 | 0.00 | 54 | 1017.0 |
| 20260502101627 | 5 | 265 | 0.0 | 8.0 | 0.00 | 0.00 | 0.00 | 52 | 1016.8 |
| 20260502100104 | 5 | 250 | 6.4 | 9.7 | 0.00 | 0.00 | 0.00 | 50 | 1016.7 |
| 20260502090115 | 7 | 263 | 6.4 | 12.9 | 0.00 | 0.00 | 0.00 | 45 | 1016.6 |
| 20260502070109 | 5 | 336 | 0.0 | 8.0 | 0.00 | 0.00 | 0.00 | 51 | 1017.1 |
| 20260502064559 | 7 | 348 | 0.0 | 11.3 | 0.00 | 0.00 | 0.00 | 47 | 1017.0 |
| 20260502063056 | 7 | 319 | 3.2 | 9.7 | 0.00 | 0.00 | 0.00 | 47 | 1016.9 |
| 20260502061546 | 8 | 315 | 8.0 | 12.9 | 0.00 | 0.00 | 0.00 | 42 | 1016.9 |
| 20260502060027 | 8 | 312 | 9.7 | 12.9 | 0.00 | 0.00 | 0.00 | 41 | 1016.8 |
| 20260502054522 | 10 | 304 | 9.7 | 12.9 | 0.00 | 0.00 | 0.00 | 38 | 1016.6 |
| 20260502053047 | 10 | 300 | 4.8 | 14.5 | 0.00 | 0.00 | 0.00 | 38 | 1016.7 |
| 20260502051626 | 9 | 290 | 11.3 | 14.5 | 0.00 | 0.00 | 0.00 | 40 | 1016.7 |
| 20260502044612 | 9 | 309 | 8.0 | 12.9 | 0.00 | 0.00 | 0.00 | 39 | 1016.9 |
| 20260502043116 | 10 | 302 | 4.8 | 11.3 | 0.00 | 0.00 | 0.00 | 38 | 1016.8 |
| 20260502041624 | 9 | 294 | 8.0 | 11.3 | 0.00 | 0.00 | 0.00 | 39 | 1016.6 |
| 20260502040008 | 10 | 291 | 8.0 | 12.9 | 0.00 | 0.00 | 0.00 | 39 | 1016.5 |
| 20260502034517 | 10 | 305 | 8.0 | 12.9 | 0.00 | 0.00 | 0.00 | 38 | 1016.4 |
| 20260502033011 | 10 | 301 | 8.0 | 14.5 | 0.00 | 0.00 | 0.00 | 37 | 1016.1 |
| 20260502031617 | 10 | 306 | 8.0 | 12.9 | 0.00 | 0.00 | 0.00 | 37 | 1016.0 |
| 20260502030124 | 10 | 306 | 4.8 | 11.3 | 0.00 | 0.00 | 0.00 | 38 | 1015.8 |
| 20260502024505 | 10 | 294 | 9.7 | 14.5 | 0.00 | 0.00 | 0.00 | 38 | 1015.6 |
| 20260502023003 | 10 | 309 | 9.7 | 16.1 | 0.00 | 0.00 | 0.00 | 38 | 1015.5 |
| 20260502021508 | 11 | 309 | 6.4 | 16.1 | 0.00 | 0.00 | 0.00 | 36 | 1015.3 |
| 20260502020039 | 12 | 297 | 9.7 | 12.9 | 0.00 | 0.00 | 0.00 | 34 | 1015.3 |
| 20260502014519 | 15 | 309 | 9.7 | 17.7 | 0.00 | 0.00 | 0.00 | 29 | 1015.2 |
| 20260502013019 | 15 | 355 | 9.7 | 19.3 | 0.00 | 0.00 | 0.00 | 28 | 1015.2 |
| 20260502011523 | 16 | 9 | 9.7 | 17.7 | 0.00 | 0.00 | 0.00 | 27 | 1015.2 |
| 20260502010045 | 16 | 15 | 9.7 | 17.7 | 0.00 | 0.00 | 0.00 | 28 | 1015.2 |
| 20260502004513 | 16 | 44 | 9.7 | 17.7 | 0.00 | 0.00 | 0.00 | 27 | 1015.3 |
| 20260502003011 | 16 | 5 | 11.3 | 24.1 | 0.00 | 0.00 | 0.00 | 28 | 1015.2 |
| 20260502001520 | 16 | 19 | 11.3 | 22.5 | 0.00 | 0.00 | 0.00 | 27 | 1015.4 |
| 20260502000015 | 16 | 19 | 9.7 | 25.7 | 0.00 | 0.00 | 0.00 | 26 | 1015.5 |
| 20260501234515 | 17 | 37 | 14.5 | 24.1 | 0.00 | 0.00 | 0.00 | 25 | 1015.5 |
| 20260501233022 | 17 | 24 | 14.5 | 25.7 | 0.00 | 0.00 | 0.00 | 23 | 1015.5 |
| 20260501231526 | 17 | 24 | 12.9 | 22.5 | 0.00 | 0.00 | 0.00 | 24 | 1015.5 |
| 20260501230031 | 17 | 33 | 11.3 | 19.3 | 0.00 | 0.00 | 0.00 | 24 | 1015.6 |
| 20260501224526 | 17 | 36 | 9.7 | 20.9 | 0.00 | 0.00 | 0.00 | 24 | 1015.7 |
| 20260501223050 | 17 | 9 | 9.7 | 17.7 | 0.00 | 0.00 | 0.00 | 23 | 1015.8 |
| 20260501221558 | 17 | 21 | 12.9 | 22.5 | 0.00 | 0.00 | 0.00 | 23 | 1015.9 |
| 20260501220139 | 17 | 32 | 6.4 | 20.9 | 0.00 | 0.00 | 0.00 | 23 | 1016.0 |
| 20260501214612 | 17 | 48 | 8.0 | 20.9 | 0.00 | 0.00 | 0.00 | 23 | 1016.2 |
| 20260501213118 | 17 | 56 | 9.7 | 17.7 | 0.00 | 0.00 | 0.00 | 24 | 1016.2 |
| 20260501211501 | 17 | 348 | 4.8 | 24.1 | 0.00 | 0.00 | 0.00 | 24 | 1016.4 |
| 20260501210011 | 17 | 41 | 9.7 | 22.5 | 0.00 | 0.00 | 0.00 | 26 | 1016.4 |
| 20260501204517 | 16 | 346 | 4.8 | 16.1 | 0.00 | 0.00 | 0.00 | 26 | 1016.5 |
| 20260501203043 | 16 | 11 | 0.0 | 17.7 | 0.00 | 0.00 | 0.00 | 25 | 1016.6 |
| 20260501201551 | 16 | 53 | 3.2 | 16.1 | 0.00 | 0.00 | 0.00 | 25 | 1016.6 |
| 20260501200057 | 16 | 360 | 4.8 | 24.1 | 0.00 | 0.00 | 0.00 | 27 | 1016.8 |
| 20260501194602 | 16 | 40 | 8.0 | 20.9 | 0.00 | 0.00 | 0.00 | 27 | 1016.9 |
| 20260501193106 | 15 | 22 | 6.4 | 17.7 | 0.00 | 0.00 | 0.00 | 29 | 1017.1 |
| 20260501191607 | 15 | 22 | 11.3 | 20.9 | 0.00 | 0.00 | 0.00 | 26 | 1017.3 |
| 20260501190119 | 15 | 23 | 0.0 | 16.1 | 0.00 | 0.00 | 0.00 | 27 | 1017.5 |
| 20260501184557 | 15 | 48 | 1.6 | 17.7 | 0.00 | 0.00 | 0.00 | 25 | 1017.7 |